Location: Le Moustier
(44.1000°N, 6.5167°E)
Time: 17:01:05
(UTC+00:00)

Lacrosse 5 rocket - Pass Details

Date: 13 December 2025
Orbit: 405 x 484 km, 57.0° (Epoch: 22 January)

Event Time Altitude Azimuth Distance (km) Brightness Sun altitude
Rises 16:52:51 0° 303° (WNW) 2,555 5.3 -9.9°
Reaches altitude 10° 16:56:30 10° 339° (NNW) 1,657 3.8 -10.5°
Maximum altitude 16:57:41 11° 358° (N) 1,576 3.5 -10.7°
Drops below altitude 10° 16:58:51 10° 16° (NNE) 1,643 3.4 -10.9°
Enters shadow 16:59:27 - 25° (NNE) 1,728 3.4 -11.0°
